Location: Azul
(36.7830°S, 59.8500°W)
Time: 09:21:18
(UTC-03:00)

NOAA 19 - Pass Details

Date: 01 November 2021
Orbit: 840 x 861 km, 99.2° (Epoch: 07 December)

Event Time Altitude Azimuth Distance (km) Brightness Sun altitude
Rises 20:02:41 0° 160° (SSE) 3,472 8.4 -6.4°
Reaches altitude 10° 20:05:11 10° 154° (SSE) 2,528 7.7 -6.9°
Maximum altitude 20:10:35 47° 80° (E) 1,133 5.5 -7.9°
Drops below altitude 10° 20:15:55 10° 6° (N) 2,489 7.3 -8.8°
Sets 20:18:21 0° 0° (N) 3,415 8.1 -9.2°
